Rbgn^[z[y[W
メイン
   新天体発見情報
     Comet P/2024 L4 (Rankin)
投稿するにはまず登録を

フラット表示 前のトピック | 次のトピック
投稿者 スレッド
佐藤裕久
投稿日時: 2024-7-20 14:06
モデレータ
登録日: 2005-6-12
居住地: 日本
投稿: 2590
オンライン
Comet P/2024 L4 (Rankin)

David Rankin (アリゾナ大学月惑星研究所, LPL)に通報によると、6月15日、Mt Lemmon サーベイ
の1.5-m 反射望遠鏡で得た画像から彗星を発見した。
G. J. Leonardの報告によると、6月16.5日UT、Mt LemmonのSteward天文台の1-m 反射望遠鏡で得た
CCD画像では、12枚の42-秒露出で約8"の集光したコマがあり見えたが、尾はなかった。
P. Jenniskensは、可能性のある関連流星群は、こいぬ座δ1であると書いている(Jenniskens 2024, 
*Atlas of Earth's Meteor Showers*, p. 663参照)。 S. Deenはこの彗星の軌道が異常に小さいこと
を指摘し、2024年5月3日から9日にかけて1.2-m Schmidt Palomar望遠鏡("Zwicky Transient Facility")
の彗星視野の画像を調べたが、V=21.0等以下は何も見つからなかったと述べている。

彗星機能の報告は次のとおり、

OC   Date        Reporter           Coma    Tail    PA          Exposures
I52  2024-06-16  G. J. Leonard      8"                            12x42s
W62  2024-07-08  J. Maikner         4"        7"     70           70x40s

発見位置は次のとおり、

     2024 UT             R.A. (2000) Decl.       Mag.   Observer
     June 15.42612   22 43 42.20   + 6 31 23.5   20.9   Rankin
          15.43133   22 43 41.69   + 6 31 16.6   20.8     "
          15.43656   22 43 41.13   + 6 31 09.9            "
          15.44754   22 43 40.14   + 6 30 54.7   20.9     "
          15.44955   22 43 39.93   + 6 30 51.7   21.1     "
          15.45080   22 43 39.83   + 6 30 50.5   20.7     "

MPCの楕円軌道要素、位置推算表は次のとおり、

Orbital elements:
    P/2024 L4 (Rankin)                                                          
Epoch 2024 Mar. 31.0 TT = JDT 2460400.5                                         
T 2024 Apr. 14.29200 TT                                 Rudenko                 
q   0.6719660            (2000.0)            P               Q                  
n   0.29582508     Peri.   53.70906     -0.96443613     +0.23905070             
a   2.2307251      Node   139.77515     -0.26124909     -0.92693421             
e   0.6987679      Incl.   10.05701     +0.04014805     -0.28921918             
P   3.33                                                                        
From 67 observations 2024 June 15-July 8, mean residual 0".3.                   
                                                                                
Ephemeris:
Date    TT    R. A. (2000) Decl.     Delta      r    Elong.  Phase   m1
2024 06 09    22 52 50.8 +08 54 01   0.4695  1.1205    90.3    65.0  20.4
...
2024 06 24    22 29 23.9 +03 10 46   0.4990  1.2886   111.9    47.0  21.1
...
2024 07 02    22 13 31.7 -00 11 23   0.5169  1.3766   124.4    37.5  21.5
...
2024 07 08    22 00 10.5 -02 50 45   0.5348  1.4416   134.2    30.4  21.7
2024 07 09    21 57 51.4 -03 17 39   0.5384  1.4523   135.9    29.2  21.8
2024 07 10    21 55 31.2 -03 44 34   0.5420  1.4630   137.5    28.0  21.8
...
2024 07 16    21 41 14.4 -06 25 10   0.5682  1.5265   147.5    20.9  22.1
...
2024 07 24    21 22 19.9 -09 48 31   0.6153  1.6094   160.7    12.1  22.5
...
2024 08 08    20 51 42.0 -15 00 02   0.7468  1.7591   174.9     2.9  23.3

(MPEC 2024-N106、CBET 5409)

  この彗星の周期は2P/Enckeに次いで3番目に短い。

 P	Name
3.237  	311P/PANSTARRS
3.304  	2P/Encke
3.331  	P/2024 L4 (Rankin)   <=====
3.465  	354P/LINEAR

フラット表示 前のトピック | 次のトピック

題名 投稿者 日時
 » Comet P/2024 L4 (Rankin) 佐藤裕久 2024-7-20 14:06

投稿するにはまず登録を
 
© 1999 Tsutomu Seki.